When you browse on this site, cookies collect data to enhance your experience and personalize the content and advertising you see.
Visit our Privacy Policy to learn more. By continuing to use the site, you agree to this use of cookies and data.
  • In France
  • List of Countries
  • For 7 days
  • Water Temperature
  • Weather Map
  • Weather Widgets
  • user-avatar
    Login

    Hourly Weather Hitchin

    Today, 19 August, Monday

    Time Temperature Precipitation Wind Pressure Humidity
    00:00 +13°C° 0 mm 5 mps 748 mmHg 84%
    01:00 +12°C° 0 mm 5 mps 749 mmHg 85%
    02:00 +11°C° 0 mm 6 mps 749 mmHg 85%
    03:00 +11°C° 0 mm 6 mps 749 mmHg 86%
    04:00 +11°C° 0 mm 6 mps 749 mmHg 87%
    05:00 +11°C° 0 mm 6 mps 750 mmHg 87%
    06:00 +11°C° 0 mm 6 mps 750 mmHg 87%
    07:00 +14°C° 0 mm 6 mps 750 mmHg 83%
    08:00 +15°C° 0 mm 6 mps 751 mmHg 79%
    09:00 +16°C° 0 mm 6 mps 751 mmHg 75%
    10:00 +17°C° 0 mm 5 mps 752 mmHg 69%
    11:00 +19°C° 0 mm 5 mps 752 mmHg 63%
    12:00 +20°C° 0 mm 5 mps 752 mmHg 57%
    13:00 +20°C° 0.2 mm 6 mps 752 mmHg 57%
    14:00 +21°C° 0.2 mm 6 mps 752 mmHg 57%
    15:00 +21°C° 0.2 mm 6 mps 753 mmHg 57%
    16:00 +20°C° 0.2 mm 6 mps 753 mmHg 60%
    17:00 +19°C° 0.2 mm 5 mps 753 mmHg 63%
    18:00 +17°C° 0.2 mm 5 mps 753 mmHg 66%
    19:00 +17°C° 0 mm 4 mps 754 mmHg 70%
    20:00 +14°C° 0 mm 4 mps 754 mmHg 74%
    21:00 +13°C° 0 mm 4 mps 755 mmHg 78%
    22:00 +13°C° 0 mm 4 mps 755 mmHg 81%
    23:00 +12°C° 0 mm 4 mps 755 mmHg 83%

    Tomorrow, 20 August, Tuesday

    Time Temperature Precipitation Wind Pressure Humidity
    00:00 +12°C° 0 mm 4 mps 755 mmHg 86%
    01:00 +11°C° 0 mm 3 mps 756 mmHg 87%
    02:00 +11°C° 0 mm 3 mps 756 mmHg 89%
    03:00 +10°C° 0 mm 3 mps 756 mmHg 91%
    04:00 +10°C° 0 mm 3 mps 756 mmHg 90%
    05:00 +10°C° 0 mm 3 mps 757 mmHg 90%
    06:00 +11°C° 0 mm 3 mps 757 mmHg 90%
    07:00 +12°C° 0 mm 3 mps 757 mmHg 83%
    08:00 +14°C° 0 mm 3 mps 758 mmHg 76%
    09:00 +15°C° 0 mm 4 mps 758 mmHg 69%
    10:00 +17°C° 0 mm 4 mps 758 mmHg 65%
    11:00 +16°C° 0 mm 5 mps 759 mmHg 61%
    12:00 +17°C° 0 mm 5 mps 759 mmHg 57%
    13:00 +17°C° 0 mm 5 mps 759 mmHg 56%
    14:00 +17°C° 0 mm 5 mps 759 mmHg 55%
    15:00 +19°C° 0 mm 5 mps 759 mmHg 54%
    16:00 +18°C° 0 mm 4 mps 759 mmHg 57%
    17:00 +18°C° 0 mm 3 mps 760 mmHg 61%
    18:00 +18°C° 0 mm 3 mps 760 mmHg 64%
    19:00 +17°C° 0 mm 3 mps 760 mmHg 71%
    20:00 +16°C° 0 mm 3 mps 761 mmHg 77%
    21:00 +13°C° 0 mm 3 mps 761 mmHg 84%
    22:00 +13°C° 0 mm 3 mps 761 mmHg 87%
    23:00 +12°C° 0 mm 3 mps 761 mmHg 89%

    Day after tomorrow, 21 August, Wednesday

    Time Temperature Precipitation Wind Pressure Humidity
    00:00 +12°C° 0 mm 3 mps 761 mmHg 92%
    01:00 +13°C° 0 mm 2 mps 761 mmHg 92%
    02:00 +13°C° 0 mm 2 mps 761 mmHg 92%
    03:00 +12°C° 0 mm 2 mps 761 mmHg 93%
    04:00 +13°C° 0 mm 2 mps 761 mmHg 92%
    05:00 +13°C° 0 mm 2 mps 761 mmHg 91%
    06:00 +13°C° 0 mm 2 mps 761 mmHg 90%
    07:00 +14°C° 0 mm 2 mps 761 mmHg 83%
    08:00 +16°C° 0 mm 3 mps 761 mmHg 77%
    09:00 +17°C° 0 mm 3 mps 761 mmHg 70%
    10:00 +18°C° 0 mm 3 mps 761 mmHg 66%
    11:00 +19°C° 0 mm 4 mps 760 mmHg 62%
    12:00 +21°C° 0 mm 4 mps 760 mmHg 57%
    13:00 +21°C° 0.1 mm 4 mps 760 mmHg 57%
    14:00 +21°C° 0.1 mm 5 mps 760 mmHg 56%
    15:00 +21°C° 0.1 mm 5 mps 759 mmHg 55%
    16:00 +20°C° 0 mm 5 mps 759 mmHg 58%
    17:00 +19°C° 0 mm 5 mps 759 mmHg 61%
    18:00 +19°C° 0 mm 4 mps 759 mmHg 64%
    19:00 +17°C° 0 mm 4 mps 759 mmHg 67%
    20:00 +15°C° 0 mm 4 mps 759 mmHg 71%
    21:00 +14°C° 0 mm 4 mps 759 mmHg 74%
    22:00 +14°C° 0 mm 4 mps 759 mmHg 76%
    23:00 +13°C° 0 mm 4 mps 759 mmHg 77%

    22 August, Thursday

    Time Temperature Precipitation Wind Pressure Humidity
    00:00 +13°C° 0 mm 4 mps 758 mmHg 79%
    01:00 +13°C° 0 mm 4 mps 758 mmHg 80%
    02:00 +13°C° 0 mm 4 mps 758 mmHg 81%
    03:00 +13°C° 0 mm 4 mps 758 mmHg 82%
    04:00 +13°C° 0.1 mm 4 mps 758 mmHg 84%
    05:00 +13°C° 0.1 mm 4 mps 758 mmHg 85%
    06:00 +13°C° 0.1 mm 5 mps 758 mmHg 87%
    07:00 +15°C° 0 mm 5 mps 759 mmHg 83%
    08:00 +17°C° 0 mm 4 mps 759 mmHg 79%
    09:00 +18°C° 0 mm 4 mps 759 mmHg 75%
    10:00 +19°C° 0 mm 4 mps 759 mmHg 70%
    11:00 +20°C° 0 mm 5 mps 759 mmHg 65%
    12:00 +21°C° 0 mm 5 mps 759 mmHg 59%
    13:00 +21°C° 0 mm 5 mps 759 mmHg 57%
    14:00 +22°C° 0 mm 5 mps 759 mmHg 55%
    15:00 +22°C° 0 mm 5 mps 759 mmHg 52%
    16:00 +21°C° 0 mm 4 mps 759 mmHg 55%
    17:00 +20°C° 0 mm 3 mps 759 mmHg 59%
    18:00 +20°C° 0 mm 3 mps 759 mmHg 62%
    19:00 +19°C° 0 mm 2 mps 759 mmHg 67%
    20:00 +17°C° 0 mm 2 mps 759 mmHg 71%
    21:00 +16°C° 0 mm 2 mps 760 mmHg 76%
    22:00 +16°C° 0 mm 2 mps 759 mmHg 79%
    23:00 +16°C° 0 mm 2 mps 759 mmHg 82%

    23 August, Friday

    Time Temperature Precipitation Wind Pressure Humidity
    00:00 +15°C° 0 mm 2 mps 759 mmHg 85%
    01:00 +15°C° 0 mm 2 mps 759 mmHg 88%
    02:00 +15°C° 0 mm 2 mps 759 mmHg 90%
    03:00 +15°C° 0 mm 2 mps 758 mmHg 92%
    04:00 +15°C° 0 mm 2 mps 758 mmHg 92%
    05:00 +15°C° 0 mm 2 mps 759 mmHg 92%
    06:00 +15°C° 0 mm 2 mps 759 mmHg 92%
    07:00 +17°C° 0 mm 3 mps 759 mmHg 86%
    08:00 +18°C° 0 mm 3 mps 759 mmHg 80%
    09:00 +20°C° 0 mm 3 mps 759 mmHg 73%
    10:00 +21°C° 0 mm 3 mps 759 mmHg 68%
    11:00 +22°C° 0 mm 3 mps 759 mmHg 62%
    12:00 +24°C° 0 mm 3 mps 758 mmHg 57%
    13:00 +24°C° 0 mm 3 mps 758 mmHg 56%
    14:00 +25°C° 0 mm 3 mps 758 mmHg 55%
    15:00 +25°C° 0 mm 3 mps 757 mmHg 54%
    16:00 +24°C° 0 mm 2 mps 757 mmHg 57%
    17:00 +24°C° 0 mm 2 mps 757 mmHg 61%
    18:00 +23°C° 0 mm 1 mps 757 mmHg 64%
    19:00 +22°C° 0 mm 1 mps 757 mmHg 68%
    20:00 +21°C° 0 mm 1 mps 757 mmHg 72%
    21:00 +19°C° 0 mm 1 mps 757 mmHg 75%
    22:00 +19°C° 0 mm 1 mps 757 mmHg 77%
    23:00 +18°C° 0 mm 1 mps 757 mmHg 78%

    24 August, Saturday

    Time Temperature Precipitation Wind Pressure Humidity
    00:00 +18°C° 0 mm 1 mps 757 mmHg 79%
    01:00 +18°C° 0 mm 1 mps 756 mmHg 80%
    02:00 +16°C° 0 mm 1 mps 756 mmHg 80%
    03:00 +16°C° 0 mm 1 mps 755 mmHg 81%
    04:00 +16°C° 0 mm 1 mps 755 mmHg 80%
    05:00 +16°C° 0 mm 1 mps 755 mmHg 78%
    06:00 +16°C° 0 mm 1 mps 755 mmHg 77%
    07:00 +19°C° 0 mm 1 mps 755 mmHg 70%
    08:00 +20°C° 0 mm 2 mps 755 mmHg 63%
    09:00 +21°C° 0 mm 2 mps 755 mmHg 56%
    10:00 +24°C° 0 mm 2 mps 755 mmHg 52%
    11:00 +25°C° 0 mm 2 mps 754 mmHg 48%
    12:00 +26°C° 0 mm 2 mps 754 mmHg 43%
    13:00 +27°C° 0 mm 2 mps 754 mmHg 42%
    14:00 +27°C° 0 mm 2 mps 753 mmHg 41%
    15:00 +28°C° 0 mm 3 mps 753 mmHg 40%
    16:00 +26°C° 0 mm 3 mps 753 mmHg 46%
    17:00 +25°C° 0 mm 3 mps 753 mmHg 52%
    18:00 +24°C° 0 mm 3 mps 753 mmHg 58%
    19:00 +23°C° 0 mm 2 mps 752 mmHg 62%
    20:00 +21°C° 0 mm 2 mps 752 mmHg 66%
    21:00 +19°C° 0 mm 2 mps 752 mmHg 70%
    22:00 +19°C° 0 mm 2 mps 752 mmHg 71%
    23:00 +18°C° 0 mm 2 mps 752 mmHg 72%
    Show more